NOAA 17 DEB, 48611

Orbit data source: Space-Track

NOAA 17 DEB, 48611 is space debris in SSO originally from a launch on Mon, 24 Jun 2002 UTC launched from the Air Force Western Test Range (AFWTR). Debris objects in space refer to the collection of defunct objects orbiting the Earth. Examples of debris include non-operational satellites, rocket bodies, and fragments generated from explosions, collisions, or faulty payload assembly.

Loading next visibility...
Identifier
48611, 2002-032AC
Orbit
SSO
Country
Flag of USUS
Related business
Manufacturer
Unknown
Mission
Spacecraft
Bus & Motor
Unknown
Mass
Unknown
Launch date (UTC)
2002-06-24 (24 years ago)
Launch vehicle
Unknown
Launch site
Air Force Western Test Range (AFWTR)
Object type
Payload
Rocket body
Debris
Shape & HBR
Unknown shape, 0.1 m
Radar Cross Section
Medium (>0.1 m² and <1 m²)

Expand to show TLE details & history
Last TLE update: 2 days ago

TLE from 2 days ago
0 NOAA 17 DEB
1 48611U 02032AC  26171.24977617  .00006784  00000-0  14424-2 0  9999
2 48611  98.7375 164.0538 0003591 185.3538 174.7623 14.59386806271964
Epoch: 2026-06-20T05:59Z
TLE epoch observation values (Epoch: 2026-06-20T05:59:40.661Z)
Latitude
0.00007°
Longitude
165.66726°
Altitude
700.652 km
Speed
7.504 km/s
True Right ascension
10h 56m 12s
True Declination
0° 00' 00"
Sunlit
Object was in daylight at epoch
Visualization orbit readout
Latitude
Unknown
Longitude
Unknown
Altitude
Unknown
Speed
Unknown
Apparent Right ascension
Unknown
Apparent Declination
Unknown
Sunlit
N/A
Visualization observer readout
Local Sidereal Time
21:36:38
Azimuth
Unknown
Elevation
Unknown
Doppler factor
Unknown
Orbital elements
Apogee altitude
694.801 km
Perigee altitude
689.723 km
Semi-major axis
7,070.399 km
Eccentricity
0.00036
Inclination
98.7375°
RAAN
164.0538°
Arg. of periapsis
185.3538°
True anomaly
174.76605°
Mean anomaly
174.7623°
Eccentric anomaly
174.76418°
Mean motion
3.65071 °/min
Orbital period
98.61 mins
BSTAR
0.0014424
Loading maneuver chart data...
Computing Atmospheric mass density...

Documentation

Showing up to 5 results
|